Upstream stations:
Downstream station:
SHEF ID: CHNK1 Cheney Lake
STATION TYPE: RESERVOIR
Flood Pool: Bottom = 1421.60, Top = 1429.00
PRECIP ELEVATION STORAGE INFLOW RELEASE WIND-DIRWIND-SPEED VOLTAGE
in ft ac-ft cfs cfs deg mph volt
Ccp-Rev Ccp-Rev Ccp-Rev Rev-Regi Rev-Regi Ccp-Rev Ccp-Rev Ccp-Rev
(US/Central)
08/31 00:00 0.00 1420.05 152679 0 0 134.80 0.20 13.09
08/31 01:00 0.00 1420.05 152679 0 0 121.90 0.00 13.08
08/31 02:00 0.00 1420.05 152679 0 0 141.60 0.00 13.09
08/31 03:00 0.00 1420.05 152679 0 0 155.20 0.00 13.09
08/31 04:00 0.00 1420.05 152679 0 0 116.20 1.70 13.09
08/31 05:00 0.00 1420.04 152588 0 0 127.00 2.40 13.11
08/31 06:00 0.00 1420.04 152588 0 0 122.60 1.60 13.11
08/31 07:00 0.00 1420.04 152588 0 0 132.90 1.30 13.10
08/31 08:00 0.00 1420.04 152588 0 0 148.60 1.30 13.10
08/31 09:00 0.00 1420.04 152588 0 0 126.50 2.80 13.11
08/31 10:00 0.00 1420.04 152588 0 0 145.30 4.00 13.11
08/31 11:00 0.00 1420.03 152496 0 0 190.50 5.50 13.10
08/31 12:00 0.00 1420.03 152496 0 0 173.50 4.60 13.11
08/31 13:00 0.00 1420.03 152496 0 0 167.50 2.70 13.09
08/31 14:00 0.00 1420.03 152496 0 0 125.50 5.20 13.09
08/31 15:00 0.00 1420.03 152496 0 0 ---- ---- 13.09
08/31 16:00 0.00 1420.02 152405 0 0 ---- ---- 13.09
08/31 17:00 0.00 1420.02 152405 0 0 ---- ---- 13.09
08/31 18:00 0.00 1420.02 152405 0 0 ---- ---- 13.08
08/31 19:00 0.00 1420.02 152405 0 0 ---- ---- 13.07
08/31 20:00 0.00 1420.02 152405 0 0 ---- ---- 13.09
08/31 21:00 0.00 1420.02 152405 0 0 ---- ---- 13.07
08/31 22:00 0.00 1420.02 152405 0 0 ---- ---- 13.09
08/31 23:00 0.00 1420.02 152405 0 0 ---- ---- 13.08